Regional Weather Roundup
Issued by NWS

Home | Current Version | Previous Version | Text Only | Print | Product List | Glossary On
Versions: 1 2 3 4 5 6 7 8 9 10 11 12 13 14 15 16 17 18 19 20 21 22 23 24 25 26 27 28 29 30 31 32 33 34 35 36 37 38 39 40 41 42 43 44 45 46 47 48 49 50
000
ASUS43 KMPX 141610
RWRMN
WEATHER ROUNDUP FOR MINNESOTA
NATIONAL WEATHER SERVICE TWIN CITIES/CHANHASSEN MN
1000 AM CST THU DEC 14 2017


NOTE: "FAIR" INDICATES FEW OR NO CLOUDS BELOW 12,000 FEET WITH NO
SIGNIFICANT WEATHER AND/OR OBSTRUCTIONS TO VISIBILITY. N/A MEANS
CURRENT SKY AND/OR WEATHER CONDITIONS ARE NOT AVAILABLE.

MNZ060>063-068>070-141700-
   Twin Cities Metro

CITY           SKY/WX    TMP DP  RH WIND       PRES   REMARKS
TWIN CITIES    CLOUDY    19  15  84 W5        30.06R WCI  12
ST PAUL        CLOUDY    19  15  84 CALM      30.07R
CRYSTAL        CLOUDY    18  11  74 CALM      30.04R
BLAINE         CLOUDY    19  16  86 SW5       30.04R WCI  13
LAKEVILLE      FLURRIES  16  12  86 CALM      30.05R
EDEN PRAIRIE   CLOUDY    17  14  88 CALM      30.05R
SOUTH ST PAUL  CLOUDY    19  15  82 CALM      30.06R
LAKE ELMO      FLURRIES  19  16  86 SW3       30.05S
$$
MNZ001>005-007-008-013>017-022>024-027-028-141700-
   Northwest Minnesota

CITY           SKY/WX    TMP DP  RH WIND       PRES   REMARKS
BEMIDJI        FLURRIES  15  12  89 NW10      29.98R WCI   2
HALLOCK        CLOUDY    18  12  79 N13       30.07R WCI   4
ROSEAU         LGT SNOW  12   9  85 N9        30.02R WCI   0
WARROAD        FLURRIES  10   7  85 NW8       30.01R WCI  -1
THIEF RVR FALL FLURRIES  18  15  88 NW18      30.04R WCI   2
CROOKSTON      CLOUDY    19  18  93 N15       30.07R WCI   5
FOSSTON        CLOUDY    16  12  86 W7        30.02R WCI   6
DETROIT LAKES  FLURRIES  19  18  93 NW10      30.02R WCI   8
MOORHEAD       LGT RAIN  21  18  86 CALM      30.07R
PARK RAPIDS    CLOUDY    16  12  84 NW9       29.98R WCI   4
MAHNOMEN       FLURRIES  17  15  90 NW8       30.02R WCI   7
$$
MNZ006-009>011-018-025>026-141700-
   North Central Minnesota

CITY           SKY/WX    TMP DP  RH WIND       PRES   REMARKS
BAUDETTE       PTSUNNY    9   6  88 NW9       29.98R WCI  -4
FLAG ISLAND    FLURRIES   7   3  85 NW10      29.99R WCI  -8
INTL FALLS     PTSUNNY   13   7  77 W5        29.96S WCI   5
WASKISH        LGT SNOW  12  10  92 W7        29.98R WCI   2
BIG FORK       LGT SNOW  14   9  79 W3        29.96R
LONGVILLE      LGT SNOW  16  10  79 CALM      29.98S VSB 1
GRAND RAPIDS   LGT SNOW  15  11  83 W5        29.99S FOG     WCI   8
CRANE LAKE     CLOUDY    12   9  85 CALM      29.98S
ORR            LGT SNOW  12   7  79 CALM      29.93S
COOK           LGT SNOW  10   7  85 W3        29.96S VSB 1
WALKER         FLURRIES  14  11  87 W7        29.98S WCI   4
$$
MNZ012-019>021-037-141700-
   Northeast Minnesota

CITY           SKY/WX    TMP DP  RH WIND       PRES   REMARKS
DULUTH         FLURRIES  14  12  92 W8        29.95R WCI   3
ELY            FLURRIES  12   9  85 W6        29.93S WCI   3
HIBBING        LGT SNOW  13   8  81 VRB6      29.96S WCI   4
EVELETH        LGT SNOW  14   7  75 NW6       29.96S WCI   5
DULUTH HARBOR  FLURRIES  19  16  86 W7        30.02S WCI  10
TWO HARBORS    LGT SNOW  19  16  86 W5        29.96R WCI  13
GRAND MARAIS     N/A     18  11  74 SW6       29.98S WCI  10
G MARAIS ARPRT LGT SNOW  10   7  85 NW5       29.87S WCI   2
$$
MNZ029>031-032-039>041-046>048-054>057-064-141700-
   West Central Minnesota

CITY           SKY/WX    TMP DP  RH WIND       PRES   REMARKS
FERGUS FALLS   CLOUDY    18  16  93 NW3       30.08R
WHEATON        CLOUDY    21  18  86 CALM      30.07R
MORRIS         CLOUDY    21  18  86 NW5       30.04R WCI  15
ALEXANDRIA     CLOUDY    17  14  88 NW7       30.02R WCI   8
ELBOW LAKE     CLOUDY    18  17  95 NW6       30.04R WCI  10
WADENA         FLURRIES  16  12  86 W7        30.00S WCI   6
GLENWOOD       FLURRIES  18  16  93 NW10      30.02S WCI   6
APPLETON         N/A     25  19  80 N3        30.05R
BENSON         CLOUDY    21  18  86 N7        30.06R WCI  13
ORTONVILLE     CLOUDY    21  18  86 CALM      30.04S
MADISON        CLOUDY    25  21  86 CALM      30.05S
WILLMAR        CLOUDY    21  18  86 NW10      30.04S WCI  10
$$
MNZ033>034-036-042>043-049>051-058-059-141700-
   Central Minnesota

CITY           SKY/WX    TMP DP  RH WIND       PRES   REMARKS
ST CLOUD       CLOUDY    19  15  84 W3        30.02R
SAUK CENTRE    FLURRIES  16  14  91 W8        30.02S WCI   5
PAYNESVILLE    CLOUDY    18  17  94 W8        30.03S WCI   8
AITKIN         LGT SNOW  14  10  85 NW5       29.98S VSB 1   WCI   6
PINE RIVER     LGT SNOW  14  10  85 SW3       30.02S
BRAINERD       LGT SNOW  16  12  84 W7        30.00S FOG     WCI   6
STAPLES        FLURRIES  16  10  79 W9        30.01R WCI   4
LONG PRAIRIE   CLOUDY    16  14  93 W7        30.01R WCI   6
LITTLE FALLS   CLOUDY    18  12  79 NW7       30.03R WCI   8
LITCHFIELD     CLOUDY    19  18  93 W5        30.04R WCI  13
BUFFALO        CLOUDY    17  14  86 S3        30.04F
MAPLE LAKE     CLOUDY    19  16  88 SW3       30.04S
HUTCHINSON     CLOUDY    20  18  89 SW3       30.05R
$$
MNZ037-044-045-052-053-141700-
   East Central Minnesota

CITY           SKY/WX    TMP DP  RH WIND       PRES   REMARKS
PRINCETON      CLOUDY    18  16  93 CALM      30.02S
MORA           CLOUDY    18  14  86 W5        30.03S WCI  11
CAMBRIDGE      FLURRIES  18  12  79 CALM      30.04R
RUSH CITY      FLURRIES  17  13  85 W5        30.03S WCI  10
MOOSE LAKE     LGT SNOW  18  12  79 W5        29.99R WCI  11
HINCKLEY       CLOUDY    19  14  79 W6        30.01S WCI  11
CLOQUET        FLURRIES  16  10  79 W7        29.97S WCI   6
MCGREGOR       CLOUDY    18  12  79 NW5       29.99S WCI  11
$$
MNZ071>073-080-081-089-090-097-098-141700-
   Southwest Minnesota

CITY           SKY/WX    TMP DP  RH WIND       PRES   REMARKS
MONTEVIDEO     CLOUDY    23  19  86 N6        30.05S WCI  16
GRANITE FALLS  CLOUDY    25  21  87 NW5       30.06S WCI  19
CANBY          CLOUDY    25  21  86 CALM      30.05S
MARSHALL       CLOUDY    25  21  85 CALM      30.04R
REDWOOD FALLS  CLOUDY    22  17  81 NW7       30.05R WCI  13
OLIVIA         CLOUDY    21  18  86 NW12      30.04R WCI   9
PIPESTONE      CLOUDY    28  27  93 W5        30.00S WCI  23
WINDOM           N/A     21  10  63 CALM      30.03R
WORTHINGTON    CLOUDY    24  21  88 SW7       30.02S WCI  16
JACKSON        CLOUDY    23  19  86 MISG      30.03S
SLAYTON        CLOUDY    27  24  90 SW6       30.01S WCI  20
$$
MNZ065>067-074>077-082>085-091>093-141700-
   South Central Minnesota

CITY           SKY/WX    TMP DP  RH WIND       PRES   REMARKS
MANKATO        CLOUDY    18  15  88 S6        30.06R WCI  10
NEW ULM        CLOUDY    21  18  86 NW8       30.05R WCI  12
ST JAMES       CLOUDY    21  18  86 W7        30.06S WCI  13
FAIRMONT       CLOUDY    22  17  81 W6        30.04F WCI  14
GLENCOE        CLOUDY    20  17  89 CALM      30.04S
FARIBAULT      FLURRIES  16  14  93 S3        30.05R
OWATONNA       MOSUNNY   18  16  93 CALM      30.03F
WASECA         LGT SNOW  18  16  93 SW3       30.06S
ALBERT LEA     SUNNY     18  14  86 CALM      30.04R FOG
$$
MNZ078>079-086>088-094>096-141700-
   Southeast Minnesota

CITY           SKY/WX    TMP DP  RH WIND       PRES   REMARKS
ROCHESTER      MOSUNNY   19  15  84 MISG      30.04S FOG
RED WING       SUNNY     18  12  79 CALM      30.05S HAZE
STANTON        CLOUDY    18  15  88 S5        30.04S WCI  11
DODGE CENTER   MOSUNNY   18  16  93 SW3       30.03R FOG
WINONA           N/A     18  14  86 CALM      30.09S
AUSTIN         SUNNY     18  16  93 SW3       30.05R FOG
PRESTON        SUNNY     18  14  85 S3        30.05R
$$
ABBREVIATIONS USED IN REMARKS
   TC - TEMPERATURES IN CELSIUS
  WCI - WIND CHILL INDEX
   HX - HEAT INDEX
  VSB - VISIBILITY
$$




USA.gov is the U.S. government's official web portal to all federal, state and local government web resources and services.